Theta_e
330 331 329 327 326 329 331 332 331 331 332 333 332 332 331 330 330 330 330 330 330 330 331 331 331 330 330 331 331 330 330 330 330 329 329 328 326 325 326 326 326 325 325 325 324 324 325 325 326 326 326 325 325 325 325 323 322 322 321 320 320 320 320 320 321 321 321 321 320 320 319 319 318 318
328 329 329 327 324 325 329 331 331 331 333 334 332 331 331 330 330 330 331 331 331 331 332 331 331 329 329 329 330 330 330 329 329 329 328 326 324 325 325 325 324 323 323 322 321 320 321 322 324 326 326 325 325 324 325 325 323 322 321 321 322 322 322 321 321 321 321 321 322 322 322 321 321 320
326 327 327 326 324 323 324 328 330 330 331 333 332 331 331 331 331 331 331 332 332 332 332 332 331 330 328 329 330 330 329 328 328 328 326 324 324 325 324 324 324 324 324 323 321 319 318 319 321 323 325 325 324 324 325 325 325 324 323 323 323 324 323 323 323 322 322 322 322 323 323 323 323 323
326 326 325 325 325 323 321 325 329 330 330 331 332 332 333 332 332 332 332 333 333 332 332 331 330 328 328 328 328 327 326 326 326 326 325 324 325 326 325 326 326 327 327 326 324 321 318 318 318 320 321 323 323 324 324 325 326 326 326 325 324 324 324 324 323 323 323 323 323 323 323 323 323 323
326 326 325 325 326 324 321 322 326 330 331 331 333 334 334 334 333 333 333 333 333 332 332 331 329 327 327 327 326 326 325 325 326 325 325 325 326 327 327 327 328 328 328 327 325 321 318 318 319 319 320 321 322 323 323 324 325 326 326 327 326 325 325 324 324 323 323 324 323 323 323 322 322 322
325 326 325 324 325 324 322 321 324 328 331 332 333 334 334 334 333 333 333 332 332 332 332 331 330 328 327 327 327 327 327 327 326 326 326 326 327 328 328 329 329 329 329 328 325 320 318 318 319 319 320 321 322 322 323 323 323 323 324 325 325 325 325 324 323 323 323 324 324 324 324 323 322 321
324 325 325 324 326 326 324 321 321 324 327 329 332 334 334 334 333 333 334 333 333 333 333 332 331 329 328 328 328 328 328 327 327 327 327 327 327 328 328 328 329 329 330 328 325 321 319 319 320 320 320 320 321 322 322 323 323 323 322 322 323 322 322 321 321 321 322 323 324 324 324 324 323 323
322 323 323 324 325 326 325 324 322 322 323 326 330 333 334 334 334 334 334 334 334 333 333 332 331 330 329 328 329 329 328 328 328 328 328 327 327 328 327 326 327 329 329 328 325 321 318 318 320 321 321 321 321 321 321 322 323 323 323 323 323 322 321 321 320 319 321 322 323 323 323 322 321 321
322 322 321 322 324 326 326 325 324 324 323 324 328 332 334 334 333 334 335 335 334 333 333 332 331 330 328 327 328 328 328 328 328 327 327 327 327 328 328 326 326 327 327 326 323 319 317 317 318 320 321 321 322 322 321 321 320 320 320 320 320 320 320 319 318 317 318 320 322 322 321 319 318 317
329 327 325 324 324 325 325 326 326 326 327 327 328 329 331 333 333 334 335 335 334 333 332 332 331 329 328 327 328 329 329 328 327 327 327 328 329 329 328 327 326 325 324 323 321 319 318 318 317 318 319 319 320 320 320 319 318 318 317 317 317 317 317 316 315 314 315 316 317 317 317 316 315 314
338 337 334 332 330 328 328 328 326 324 325 328 330 329 330 332 333 334 335 335 334 333 332 332 331 329 329 328 328 328 328 329 329 330 331 330 330 329 328 327 326 326 324 323 322 321 320 318 317 317 317 318 318 318 318 317 317 317 317 317 317 316 316 315 315 314 314 314 314 314 314 313 313 313
340 341 341 340 339 337 335 332 327 324 323 325 328 331 330 331 333 333 334 334 334 333 332 332 331 330 329 328 328 327 328 330 331 332 331 330 329 329 328 327 327 327 326 325 324 323 321 319 318 319 319 319 319 318 317 317 317 317 317 317 317 317 316 316 316 316 316 316 316 316 316 315 314 314
342 342 343 344 343 343 342 339 334 331 328 324 327 331 332 332 333 333 334 334 334 333 332 331 331 330 330 329 328 328 329 331 332 331 331 330 329 329 328 327 327 328 327 326 325 324 322 321 320 321 321 320 319 319 318 317 317 317 317 317 317 317 316 316 316 316 316 317 318 318 318 318 318 317
344 344 344 345 345 344 345 344 341 338 334 329 328 330 332 334 334 333 334 334 333 333 332 331 331 331 330 329 330 330 331 331 331 330 330 330 329 328 328 327 327 328 327 326 326 324 323 322 321 321 321 321 320 318 318 317 317 317 317 317 317 316 316 316 317 317 317 318 318 319 319 319 319 319
346 346 346 345 346 345 345 346 344 342 340 333 327 328 332 334 334 334 334 334 334 333 332 331 331 331 329 328 329 330 330 329 329 328 328 328 328 328 328 328 328 328 327 326 326 324 321 321 321 321 320 320 319 318 317 317 317 317 317 316 316 315 315 315 315 315 316 317 318 318 318 319 319 318
346 347 347 346 346 346 346 346 345 343 342 336 329 329 333 334 335 334 334 334 334 333 333 331 329 329 328 327 328 329 329 327 327 326 327 328 329 329 328 328 328 327 326 325 324 323 320 320 321 320 319 319 318 318 317 317 317 317 316 315 315 314 312 312 311 311 311 313 314 316 317 317 318 317
347 348 349 348 346 346 345 346 345 343 341 336 329 330 334 335 334 334 334 334 334 333 333 331 328 327 327 327 328 328 326 325 325 325 326 328 329 328 328 328 327 326 324 323 323 322 320 320 320 319 318 318 318 318 317 317 317 317 316 314 312 309 307 306 306 305 305 306 307 308 310 311 313 313
348 349 349 349 347 346 345 346 345 342 340 336 330 330 334 333 332 334 334 333 333 333 331 328 326 327 328 328 326 324 322 322 323 325 326 328 328 328 327 326 324 323 322 322 321 320 319 319 318 318 318 318 318 317 317 317 316 314 311 309 306 305 305 306 307 308 308 308 308 308 308 308 309 310
349 350 350 350 349 347 346 347 345 341 340 336 331 331 334 334 334 335 333 331 331 331 328 326 326 328 328 326 323 320 320 322 325 326 327 328 327 326 325 323 322 321 320 320 319 319 318 318 317 317 316 315 314 313 313 311 310 308 306 305 306 307 309 312 314 314 315 315 314 314 314 314 314 314
350 350 351 351 351 349 348 347 345 342 340 336 332 331 334 335 335 334 331 328 327 326 325 326 328 327 325 323 321 320 322 324 326 327 327 326 325 324 322 321 320 319 318 318 318 318 317 315 313 311 310 308 307 306 306 305 305 305 306 308 309 311 313 314 315 315 316 316 316 316 317 317 317 317
351 351 352 352 352 351 349 347 345 341 339 336 332 331 333 335 335 333 329 326 324 323 324 326 326 325 322 321 321 322 324 325 324 325 324 323 322 320 319 318 318 318 318 317 316 315 313 311 308 307 305 304 303 303 303 304 305 307 309 310 311 312 314 314 315 314 315 315 316 316 316 316 317 317
352 353 353 352 352 351 350 348 344 340 338 335 332 333 335 336 335 332 329 325 323 323 324 325 323 321 321 322 323 324 323 322 321 321 321 320 318 318 317 317 318 318 317 315 314 312 311 309 307 305 304 303 302 303 304 305 306 308 309 310 310 311 311 312 312 313 313 313 314 314 315 315 316 317
353 353 353 352 352 351 349 348 344 340 337 334 332 334 336 335 334 332 329 324 322 323 323 322 320 321 323 323 323 321 318 318 317 317 317 317 317 317 317 317 316 315 314 314 313 312 311 307 305 305 306 305 303 303 305 307 307 308 308 308 308 307 307 308 309 310 311 312 312 313 314 315 316 316
354 354 353 352 350 349 348 346 343 339 335 333 333 334 335 335 334 331 326 323 323 322 320 320 321 323 323 320 318 316 315 315 315 315 315 316 316 316 315 315 314 314 314 314 313 311 308 306 304 305 307 307 306 306 306 307 307 307 307 306 306 306 308 309 310 311 311 312 312 313 314 315 316 316
355 355 353 351 348 347 346 344 340 337 335 333 334 335 335 334 331 327 323 323 322 321 320 322 323 322 319 316 315 314 314 314 314 314 314 314 314 314 314 314 314 314 314 314 312 309 306 305 305 306 307 308 308 307 307 307 307 306 306 307 308 309 311 312 313 312 312 312 312 313 314 315 315 316
354 352 350 347 346 346 345 342 339 337 335 334 335 336 334 330 325 323 323 323 321 321 322 323 321 318 316 315 314 314 313 314 314 313 313 313 313 313 313 314 314 314 313 311 309 307 306 306 306 307 308 307 307 307 307 306 306 306 306 308 310 311 312 312 312 312 312 312 313 313 314 315 315 315
351 348 346 345 346 346 344 341 339 338 337 336 336 333 329 325 323 324 324 322 321 322 322 320 317 316 315 315 315 314 314 314 314 313 313 313 313 313 312 312 313 313 311 309 307 306 306 307 307 307 307 307 307 307 307 306 306 306 307 309 310 311 311 311 312 313 313 314 314 314 314 314 314 314
346 345 345 345 345 343 341 340 338 336 335 334 331 328 325 325 325 324 322 322 322 322 320 318 316 316 315 315 315 314 314 314 314 314 314 313 313 312 311 310 310 309 308 307 306 306 307 307 307 307 306 306 306 307 307 307 307 307 308 309 309 309 310 312 314 314 314 314 314 313 313 313 312 312
343 343 344 344 343 340 339 337 334 331 329 328 327 326 326 325 323 322 322 323 322 320 318 318 317 316 316 315 315 315 315 315 315 314 314 314 313 312 310 309 308 307 306 306 306 306 306 306 306 306 306 306 307 307 307 307 307 307 308 308 308 309 312 313 314 313 313 312 312 312 312 312 311 311
342 342 342 341 340 339 336 332 329 327 327 327 327 326 324 322 322 323 323 322 320 319 319 318 317 317 317 316 316 316 316 315 315 315 314 314 313 312 310 308 307 306 306 305 305 305 305 305 305 306 306 306 306 306 306 307 307 306 306 307 309 312 313 313 313 312 311 311 312 311 311 311 310 310
342 341 341 340 339 337 333 329 328 328 327 326 325 323 322 323 323 323 321 320 320 320 319 319 318 317 317 317 316 316 316 316 315 315 314 314 314 312 310 308 306 305 304 304 304 304 304 304 305 306 306 306 306 306 306 306 306 306 306 309 312 313 313 312 312 311 310 311 311 311 310 310 310 310
341 340 340 339 337 334 331 329 327 326 325 323 322 322 323 324 323 321 320 320 320 320 319 319 318 318 317 317 317 317 316 316 315 315 314 314 313 310 308 307 306 305 304 303 303 302 303 304 305 305 305 306 306 306 305 305 306 307 309 311 312 312 312 312 311 310 310 311 311 311 310 310 310 310
340 340 339 338 335 331 329 327 324 323 323 322 322 323 325 324 322 320 321 321 320 320 319 319 318 318 318 317 317 317 317 316 316 315 314 313 311 308 307 306 306 305 304 302 301 301 302 303 304 304 304 305 305 305 305 306 307 308 310 311 312 312 312 311 311 310 311 311 311 310 310 310 309 309
339 339 338 336 333 329 326 324 322 322 323 322 323 326 326 323 321 321 321 320 320 320 320 319 319 318 318 318 318 317 317 317 316 314 314 312 310 307 306 306 305 305 304 301 301 301 302 302 302 302 303 304 305 305 306 307 308 309 310 311 311 311 310 310 311 311 311 311 310 310 310 310 309 308
339 338 337 334 331 327 324 322 323 323 322 322 325 327 324 321 321 321 321 321 321 321 320 320 320 319 319 318 318 318 317 317 315 314 314 312 308 306 306 306 305 304 302 300 301 302 302 301 301 302 303 304 305 305 306 308 310 310 310 309 309 309 310 311 312 312 311 311 310 310 309 309 309 307
337 339 338 334 328 324 322 323 323 322 321 324 327 325 322 321 321 321 321 321 321 321 321 321 321 320 320 319 318 318 317 316 315 314 313 310 307 306 305 305 304 302 300 300 301 302 301 301 302 303 304 305 306 307 308 310 310 310 309 307 307 309 311 312 311 311 311 310 310 309 309 308 308 307
337 338 337 331 326 323 323 323 322 321 322 325 326 323 321 321 322 321 321 322 321 321 321 321 321 322 321 320 319 317 316 315 315 314 312 309 307 305 305 304 303 301 299 300 301 301 301 301 302 304 305 306 307 308 309 310 310 309 307 306 307 309 311 311 311 311 310 309 309 309 308 307 307 308
337 338 334 328 324 323 323 322 321 320 323 326 325 322 321 322 322 322 322 322 321 321 320 320 320 321 321 320 318 316 315 315 314 312 310 308 306 305 304 303 301 299 299 300 301 301 301 301 303 305 305 305 307 309 310 310 309 308 306 305 306 308 308 309 309 309 309 308 308 307 307 307 308 308
335 334 330 325 323 323 322 321 320 322 325 327 324 321 321 322 322 322 322 321 320 319 319 319 319 319 318 317 316 315 315 314 312 310 308 306 305 305 304 302 299 298 299 300 300 300 300 301 302 304 305 305 307 310 311 310 309 308 306 305 305 305 306 307 308 308 308 308 307 307 307 308 308 307
330 328 326 324 323 322 321 321 321 324 327 326 323 321 321 322 322 322 321 320 319 318 318 318 317 317 316 315 315 314 313 311 309 307 306 305 305 304 302 299 298 298 299 299 299 300 300 300 302 303 304 305 307 309 310 309 308 307 305 305 305 304 305 307 308 308 307 307 306 306 307 307 306 306
326 324 324 323 322 321 321 322 324 327 327 325 322 321 322 322 321 321 320 319 318 317 316 316 316 315 315 314 313 311 309 307 306 305 305 305 304 302 299 298 297 298 298 298 298 299 300 300 301 302 304 305 306 307 308 308 307 306 305 305 304 303 303 305 307 307 306 306 306 306 306 305 305 305
323 323 322 322 321 321 322 325 327 328 326 323 321 321 322 321 320 320 319 318 318 316 315 315 315 314 314 313 311 308 306 305 305 305 305 304 303 300 298 297 297 297 297 297 298 299 300 300 301 302 304 305 306 307 308 308 307 306 306 305 304 302 301 301 303 305 306 306 306 305 304 304 303 304
322 322 322 322 322 323 325 327 328 327 324 321 321 322 322 320 320 319 319 318 317 316 315 315 314 313 313 312 309 307 305 305 305 304 304 303 301 299 298 297 296 296 296 297 299 300 300 300 301 302 304 305 306 307 307 307 307 306 306 306 305 303 300 299 300 302 305 306 306 305 304 303 303 302
322 322 323 323 324 325 327 328 328 325 322 321 322 322 321 320 319 319 319 318 317 316 315 314 314 313 313 311 309 307 305 305 304 304 304 303 301 300 298 297 296 296 297 298 299 300 300 301 301 302 304 305 306 306 307 307 306 306 306 306 305 303 300 299 298 300 303 306 306 306 305 305 304 303
324 324 325 325 325 326 327 328 326 323 321 321 322 321 320 319 319 319 318 318 317 316 315 314 314 313 312 311 309 307 305 305 304 304 304 303 302 300 298 297 296 296 297 298 299 300 301 301 301 302 304 305 306 306 307 306 306 306 306 306 305 303 301 299 299 300 303 305 306 306 306 306 305 304
Wind_Speed
13 13 14 15 16 17 18 17 16 17 17 16 15 14 13 13 13 14 15 15 14 13 12 12 13 13 14 15 15 14 13 13 13 13 13 14 14 13 13 13 14 13 13 14 14 15 15 15 15 15 15 16 16 16 16 17 18 18 18 18 18 19 19 18 18 18 18 18 17 17 17 17 17 17
14 14 14 15 16 18 19 19 18 17 17 17 16 15 14 13 14 14 15 16 15 13 13 14 15 15 14 14 14 13 13 13 13 13 14 14 14 14 14 13 13 14 14 15 15 16 16 17 17 17 17 17 17 17 16 17 17 18 18 18 18 19 19 19 19 19 19 19 19 19 18 18 18 18
16 16 16 16 16 17 19 20 19 18 17 17 16 15 15 14 14 14 14 16 16 15 16 16 17 16 15 14 14 14 14 14 14 14 14 14 13 13 13 14 14 15 16 16 16 16 17 17 18 18 18 18 17 17 17 17 17 18 18 19 19 19 19 19 19 19 19 20 20 20 19 19 18 18
18 17 17 17 17 17 19 20 21 20 18 17 17 16 16 14 14 14 14 17 19 18 18 18 16 15 15 15 15 15 15 15 15 15 15 13 13 14 14 15 16 17 17 17 17 17 17 17 18 18 19 19 18 18 17 17 18 18 19 19 20 20 19 19 19 19 20 20 20 20 20 20 19 19
20 19 19 18 17 18 20 21 22 22 21 20 19 18 17 16 16 16 16 18 20 19 17 15 14 14 15 15 15 15 14 15 15 15 14 13 14 15 17 18 19 19 18 18 18 18 18 17 17 17 18 18 18 19 19 19 19 19 19 20 20 21 22 22 22 22 22 21 21 22 22 22 22 22
22 21 21 20 19 19 20 21 22 24 24 23 22 20 19 17 16 16 16 18 19 18 16 14 13 13 14 15 15 15 15 15 15 14 14 14 15 16 17 19 20 19 19 19 18 18 18 18 17 17 17 17 18 19 20 21 21 22 22 22 22 23 24 25 25 25 24 24 23 23 23 23 24 24
23 23 23 22 20 20 21 21 21 23 25 25 25 23 21 19 17 16 17 18 18 17 16 15 14 13 14 15 15 16 17 16 15 15 15 15 16 16 17 18 19 19 19 17 16 17 18 18 17 16 17 18 19 20 21 22 23 24 24 24 25 25 25 25 26 26 26 26 26 25 25 24 24 25
23 24 23 23 22 22 22 22 21 22 24 26 26 25 23 21 19 18 17 17 17 17 17 17 16 14 14 15 15 16 17 16 15 16 16 17 17 17 18 20 20 19 17 15 15 15 17 18 18 17 17 17 19 20 22 23 24 24 25 25 26 26 27 27 27 27 26 26 26 27 27 26 25 25
24 24 23 23 23 23 23 23 22 22 23 25 27 27 26 23 21 19 18 17 17 18 19 19 18 16 15 16 16 15 15 15 16 16 17 18 19 19 20 20 20 18 17 15 15 17 19 20 19 19 19 19 20 20 22 24 26 26 27 28 28 28 29 29 29 29 28 27 27 27 27 27 27 27
25 24 24 24 24 25 24 23 23 23 23 24 26 28 28 26 23 21 20 19 19 20 20 20 19 18 17 17 17 15 15 16 18 18 19 20 20 20 21 21 20 19 18 18 18 20 22 23 23 22 22 23 23 24 25 26 27 27 27 28 29 29 29 29 28 28 29 29 29 29 30 30 31 31
25 25 25 25 26 26 25 23 21 22 24 25 26 27 28 27 26 24 22 21 20 20 20 20 20 19 18 18 18 17 17 18 20 22 22 23 23 22 21 22 22 21 21 21 22 24 25 25 26 25 24 25 26 27 27 27 26 25 25 25 26 27 27 27 26 27 27 28 29 30 31 32 33 34
26 25 26 27 27 27 26 24 22 22 23 25 26 26 26 27 26 25 23 22 21 20 21 20 20 19 19 19 19 19 20 21 23 25 24 23 24 23 23 24 25 24 23 22 23 25 25 25 25 24 24 25 27 27 27 26 25 23 23 23 24 24 25 25 25 25 26 26 26 27 27 28 29 29
27 27 27 28 27 27 28 27 25 23 23 24 25 25 25 26 25 24 22 21 20 20 21 21 20 19 20 20 20 21 21 22 26 27 24 22 22 24 25 26 25 24 23 22 23 25 25 24 24 24 25 26 26 26 25 24 24 23 23 23 23 23 24 24 24 24 24 24 24 24 23 23 23 23
29 28 29 29 29 29 30 30 29 25 24 23 23 24 25 25 23 21 19 19 19 20 21 20 20 20 20 20 20 21 21 22 24 25 24 23 23 24 26 27 25 23 22 22 24 25 26 25 25 26 26 26 25 25 25 23 23 23 23 23 23 23 23 23 24 24 23 24 24 24 24 23 23 23
30 29 30 31 31 31 31 31 30 26 23 23 22 23 25 25 22 19 18 19 19 19 20 20 19 20 20 20 20 20 20 21 22 23 24 25 25 24 25 26 25 23 22 23 25 26 26 27 28 28 27 26 26 25 25 25 24 24 23 22 22 22 23 23 24 24 25 25 25 26 26 26 26 26
29 28 31 32 31 31 31 31 29 25 23 22 21 21 23 24 22 19 19 19 19 19 20 20 19 19 19 20 19 18 19 20 21 23 24 25 25 24 24 25 25 24 24 25 26 28 27 27 28 29 27 26 26 26 26 26 25 25 24 23 24 25 26 27 27 27 27 27 28 27 28 29 29 29
28 28 30 29 27 27 29 30 29 25 21 20 20 20 23 24 21 19 19 19 19 19 19 19 19 18 18 18 17 17 18 20 22 23 24 24 23 22 22 23 24 24 25 25 27 28 28 27 28 29 27 26 26 27 27 27 27 26 26 27 27 27 27 26 26 26 26 27 28 28 29 30 31 32
26 27 28 27 24 24 27 28 28 24 18 17 19 20 22 23 21 20 19 18 18 19 19 19 18 17 17 16 16 17 19 21 22 23 22 21 21 21 22 23 24 24 24 25 26 28 27 25 26 28 27 26 27 28 28 28 28 28 27 26 25 24 22 21 20 20 20 21 22 23 24 26 27 28
24 25 27 27 26 25 24 25 26 23 17 16 19 21 22 22 20 19 17 16 18 18 18 17 16 16 16 16 17 19 21 21 21 21 20 20 21 22 23 24 24 24 23 23 24 26 25 24 26 28 27 28 29 28 28 28 27 25 23 21 20 18 17 17 17 17 17 17 18 20 21 22 23 24
22 23 24 26 27 26 22 20 21 18 14 15 18 20 21 21 20 18 16 16 17 17 16 16 16 16 17 18 20 21 21 20 19 19 19 20 21 22 23 24 24 22 21 21 21 24 25 24 26 28 28 28 28 27 26 24 22 19 17 17 16 16 17 17 17 17 18 18 19 20 21 23 24 25
21 21 22 24 25 25 21 17 16 15 14 15 17 18 20 21 20 17 15 15 16 16 17 17 16 17 18 20 21 20 20 19 19 19 20 21 21 21 21 21 20 19 19 18 19 23 26 26 26 28 27 26 26 24 22 19 17 15 15 16 16 17 18 19 19 20 20 20 20 21 22 23 24 26
21 21 22 22 24 24 20 16 14 14 15 16 17 19 21 21 19 16 15 15 16 16 17 17 17 18 19 19 19 19 19 19 20 21 21 20 18 17 16 17 17 18 17 17 19 23 27 27 26 26 26 25 24 21 19 18 17 17 17 17 18 19 19 20 21 21 22 23 23 24 24 23 24 25
21 21 22 23 23 21 18 16 15 15 17 17 17 18 20 19 17 16 15 15 14 15 15 16 16 17 17 17 16 16 17 18 19 18 16 14 12 11 12 14 16 18 18 18 21 25 27 27 25 23 24 26 25 22 21 21 21 20 21 22 22 22 21 20 20 20 21 23 24 24 24 24 24 24
22 22 23 23 21 18 16 15 14 16 19 17 16 18 20 19 17 16 16 14 13 14 15 15 15 15 15 14 14 13 13 13 13 11 9 8 8 10 12 14 16 19 20 21 23 25 26 26 24 21 20 23 26 27 26 25 24 24 25 25 24 22 20 18 18 19 20 22 22 23 23 23 23 24
22 21 21 21 19 17 15 13 14 17 18 16 16 19 19 17 16 16 15 14 13 14 14 14 14 13 12 10 10 9 8 7 6 5 5 6 8 11 13 16 18 20 21 22 22 23 23 22 22 21 21 22 25 27 29 29 28 27 25 23 22 21 19 19 20 21 21 22 22 23 23 23 23 23
20 20 20 19 18 16 13 12 15 18 18 17 18 19 18 17 16 16 15 14 14 14 13 12 11 9 7 6 6 5 4 3 3 4 6 8 10 12 15 18 20 22 22 22 21 20 20 21 21 21 21 22 24 27 30 31 30 27 24 22 21 21 21 22 23 24 24 23 23 23 23 23 23 24
19 19 19 17 16 14 12 13 16 18 18 19 19 18 17 17 16 15 14 14 14 12 11 9 7 4 4 4 4 3 2 3 4 6 8 10 12 15 17 19 21 22 22 21 19 18 19 20 20 20 21 23 25 27 28 29 29 28 27 25 23 23 24 24 25 25 24 23 22 22 22 23 24 25
18 17 16 14 13 12 12 15 16 17 18 19 19 18 17 16 15 14 14 13 12 10 9 7 4 2 2 2 3 3 4 4 5 8 10 12 14 17 18 20 20 21 20 19 17 17 18 20 20 21 22 23 24 26 26 27 29 29 29 28 27 26 25 24 23 23 22 22 22 23 24 25 25 26
17 15 14 12 12 13 16 18 18 19 20 19 18 17 16 15 14 14 13 11 10 8 7 6 5 4 3 2 3 4 6 6 8 9 11 14 16 18 19 20 20 19 18 17 17 17 18 20 21 21 21 21 22 24 26 28 29 30 30 30 30 28 24 22 21 21 22 23 23 24 25 26 26 27
17 15 14 14 16 19 19 19 20 21 20 19 18 16 15 15 15 14 12 10 9 8 7 6 6 6 4 4 5 7 8 9 10 11 13 15 17 18 20 21 20 18 17 16 17 17 18 19 19 20 20 20 21 23 24 27 30 31 29 28 27 25 23 22 22 23 25 25 25 25 25 26 27 28
19 17 17 18 20 22 21 20 20 20 19 18 17 16 16 15 15 13 11 10 9 8 7 7 7 7 6 7 8 9 10 11 11 13 15 17 18 19 20 21 21 20 18 17 17 17 16 16 16 18 19 20 21 22 23 25 28 29 27 23 22 23 24 24 26 27 27 27 28 27 28 29 29 31
20 20 21 24 24 24 23 22 21 20 18 18 17 16 16 15 15 13 11 10 9 9 8 8 8 8 9 10 10 11 12 13 13 14 16 18 19 19 20 20 21 20 20 19 17 15 14 14 15 17 18 19 20 21 22 24 24 24 23 22 22 25 26 26 29 30 29 28 29 30 32 33 34 35
23 24 26 27 26 25 24 24 22 20 19 19 17 17 17 16 15 13 11 10 9 9 9 9 10 10 11 12 13 14 14 14 15 16 17 18 19 19 19 19 20 20 21 21 18 16 16 15 16 17 17 17 18 20 22 23 22 21 21 22 24 26 27 28 30 30 29 28 31 34 36 38 39 39
25 27 28 27 26 25 24 23 21 20 20 19 17 17 18 16 14 13 11 10 10 10 11 11 12 13 14 14 15 16 16 16 16 17 18 19 20 19 18 19 20 21 22 21 19 18 18 18 18 17 15 15 16 16 16 19 21 21 21 23 25 27 29 30 30 29 28 28 32 36 39 42 43 44
27 28 28 27 26 25 24 22 21 21 20 18 17 18 18 16 14 13 12 11 12 12 13 14 14 15 16 16 17 17 17 17 17 17 19 20 19 18 18 20 21 22 21 20 19 18 19 20 19 17 16 17 18 16 14 16 19 21 23 25 26 28 28 28 28 28 29 30 32 36 40 44 46 46
28 29 28 27 27 26 24 22 22 22 20 18 17 18 18 16 14 13 12 12 13 14 15 16 17 17 18 17 17 17 17 17 17 18 19 19 19 18 19 20 22 22 21 19 18 19 20 19 16 16 18 20 22 22 20 16 16 19 24 28 29 28 27 27 28 30 31 33 34 37 40 45 48 48
29 30 28 27 27 26 24 23 23 22 20 18 18 19 18 16 14 13 12 12 13 14 15 16 17 18 18 17 16 16 16 17 17 18 19 19 19 19 20 21 22 21 20 19 18 19 19 16 13 14 18 20 22 25 25 21 18 19 25 28 29 28 27 27 29 32 33 35 37 39 42 46 49 48
30 30 29 27 27 25 23 23 23 22 20 19 19 20 18 15 13 12 12 12 13 13 13 14 14 15 15 15 15 15 16 17 17 18 19 19 19 19 20 22 22 21 20 19 18 18 17 13 11 12 16 19 22 24 25 27 26 25 26 27 27 28 28 29 30 32 34 36 38 40 43 46 48 48
29 29 29 28 26 24 23 24 24 22 20 20 21 20 17 15 13 13 13 12 12 12 12 12 12 12 13 14 14 15 16 17 17 18 18 18 18 19 21 22 21 20 20 19 18 18 15 11 10 12 15 18 20 21 23 26 28 28 27 27 26 27 28 28 29 31 33 36 39 42 45 46 46 47
30 29 27 26 25 24 24 24 22 21 20 21 21 19 16 15 14 13 12 10 10 10 11 12 12 13 13 14 14 15 16 16 17 17 17 17 18 19 21 20 20 19 20 20 19 18 15 11 11 13 15 17 19 20 22 24 27 29 29 28 27 27 26 26 27 30 32 36 39 42 44 44 44 45
31 29 27 25 25 24 23 22 21 20 21 21 20 18 16 15 14 11 9 8 8 9 10 11 12 12 12 13 13 14 15 16 15 15 15 16 18 19 18 18 18 19 20 20 19 18 15 13 12 13 15 17 19 20 22 24 26 29 31 30 29 28 26 24 25 28 31 34 37 38 40 40 41 43
30 28 27 26 24 23 22 21 20 21 21 21 20 18 16 14 12 10 9 8 8 8 9 10 11 11 11 12 13 13 13 13 13 13 15 16 17 17 16 17 18 19 19 19 19 17 16 14 13 13 15 16 18 20 22 23 25 29 31 32 32 31 28 25 24 24 27 31 33 34 36 36 37 40
27 26 24 23 23 22 22 21 21 21 21 21 19 17 14 12 11 9 8 7 7 8 9 10 10 11 11 12 12 12 12 11 12 13 14 15 16 16 17 17 18 19 19 19 18 17 15 14 14 15 15 16 17 19 21 23 25 28 31 33 34 34 32 28 25 23 24 28 32 33 32 31 32 34
22 21 20 20 21 21 20 21 21 22 21 20 17 15 13 12 10 9 8 7 8 9 10 10 11 11 12 12 12 11 11 11 12 13 13 14 15 16 17 18 18 18 18 18 17 16 15 15 15 15 15 16 17 19 21 23 25 28 30 32 34 35 35 32 29 27 26 29 33 35 33 32 32 33
20 19 19 19 20 20 20 21 22 22 21 19 16 14 13 12 10 8 8 8 10 10 11 12 12 11 11 11 11 10 10 12 14 14 14 15 16 17 17 18 18 18 17 17 17 17 16 16 15 15 15 15 17 19 20 22 25 27 29 31 33 35 35 34 32 31 30 32 36 38 37 36 36 37
Wind_Direction
250 257 262 262 257 252 252 256 257 251 247 248 252 257 263 266 269 275 281 287 293 296 297 298 298 293 286 280 279 281 282 284 282 278 279 284 289 292 295 299 301 301 300 299 297 295 294 293 293 293 293 293 293 290 287 285 284 284 285 286 288 288 286 284 282 281 280 279 278 278 276 275 273 272
251 256 260 262 259 252 250 254 259 255 247 246 249 252 258 264 267 273 283 290 294 296 300 304 304 299 289 280 277 277 278 279 278 276 279 284 291 295 298 300 300 299 300 298 297 295 293 292 291 290 291 293 295 295 291 287 283 283 283 285 286 286 284 282 280 278 277 277 278 278 278 277 276 274
250 255 259 262 261 256 251 251 254 255 250 247 247 248 253 259 265 272 280 284 287 294 299 301 301 298 290 282 278 278 279 278 275 274 277 282 290 295 295 294 293 294 295 295 296 297 295 292 289 288 289 291 292 293 291 289 285 284 283 283 283 281 280 278 277 276 274 273 273 274 275 276 275 274
247 252 256 260 263 260 253 249 250 252 251 250 248 248 251 255 261 268 273 278 285 291 295 297 298 294 288 282 279 278 278 277 275 274 276 281 291 294 290 287 290 292 292 290 292 296 298 295 292 289 290 290 290 289 289 288 286 284 283 281 279 276 275 275 276 275 273 272 270 270 270 271 271 271
245 249 252 256 260 260 255 250 248 250 251 252 251 249 250 252 257 262 267 273 280 284 286 290 292 288 282 278 276 276 276 275 275 275 276 284 292 292 287 285 288 291 291 290 291 295 298 298 295 293 291 290 289 288 287 287 286 285 282 280 278 276 277 279 280 279 275 271 269 268 269 269 269 268
243 247 250 253 256 259 258 253 250 250 252 253 253 252 252 253 254 257 262 265 269 274 280 284 286 282 277 275 274 275 277 278 276 275 278 285 291 291 289 288 288 288 290 290 291 295 299 300 298 295 291 289 287 285 284 284 284 283 281 279 278 277 278 280 281 280 278 274 271 268 267 267 267 267
246 248 250 252 254 258 259 257 254 253 253 254 254 254 255 255 255 257 260 262 266 274 280 284 285 283 276 272 272 273 276 277 275 275 279 284 290 295 297 296 293 290 290 291 292 296 303 305 302 296 291 288 287 285 284 281 279 278 278 277 276 276 277 279 279 279 277 275 273 271 268 267 266 266
250 252 253 255 255 257 259 260 259 257 256 256 256 256 257 258 260 263 262 264 270 277 281 284 287 286 278 274 273 273 275 276 275 276 279 284 291 298 302 303 301 296 293 292 292 299 308 310 307 301 295 291 289 288 288 287 286 284 282 279 277 276 277 279 280 279 276 274 272 271 270 269 268 267
252 255 257 259 259 258 258 259 260 260 261 260 259 259 259 260 262 264 265 268 274 278 281 284 285 285 282 279 278 276 276 277 278 279 281 286 292 299 304 306 305 300 295 293 295 302 308 309 307 303 298 293 290 289 289 290 290 290 288 286 283 281 280 280 280 278 275 272 270 269 268 268 269 270
253 256 259 261 262 261 260 260 262 265 265 264 263 262 262 262 263 264 267 271 276 278 279 281 282 283 283 282 281 280 280 282 285 286 287 289 293 299 302 304 304 299 295 295 297 301 305 306 304 300 297 294 292 292 293 295 294 293 290 287 285 285 284 284 283 280 277 274 272 271 270 270 270 270
255 257 259 261 263 264 264 264 267 270 269 267 266 265 263 262 263 265 267 270 273 276 277 278 279 282 283 282 283 285 286 288 290 289 291 292 293 296 298 301 301 296 291 292 293 297 302 304 300 297 296 295 295 296 299 301 301 297 292 289 288 288 289 289 288 286 283 280 277 275 273 272 271 269
257 258 260 262 264 267 267 265 265 269 270 268 265 264 263 261 262 263 264 265 268 272 275 275 277 279 282 284 288 291 291 293 292 293 297 299 297 297 297 299 300 295 290 289 291 295 300 301 298 296 297 298 299 302 304 305 303 299 295 293 292 292 292 292 292 290 288 286 284 282 279 277 274 272
257 258 260 262 265 267 269 268 265 263 266 265 262 260 258 259 261 261 259 261 266 271 272 272 273 277 282 287 291 292 292 294 295 299 306 306 303 301 300 300 302 297 291 291 293 297 300 299 298 298 299 302 305 307 307 306 303 299 297 295 295 294 293 292 291 290 287 285 284 283 282 279 276 274
257 258 260 262 264 265 267 269 268 265 264 263 260 258 256 256 259 256 255 260 267 270 269 270 274 277 282 287 290 289 290 293 295 300 306 306 304 303 302 303 305 299 293 293 294 297 300 300 300 301 303 307 309 308 308 307 304 301 299 298 297 294 292 289 287 286 284 281 278 277 275 273 272 271
259 260 262 262 265 267 268 271 273 273 271 266 260 257 255 255 254 251 254 262 267 268 268 271 275 277 281 285 286 286 288 291 295 299 302 303 304 305 303 302 304 301 296 294 293 296 300 301 302 303 305 308 308 307 308 308 306 303 301 299 296 291 287 285 282 280 278 276 274 273 272 271 270 269
262 263 264 264 267 268 270 274 277 275 270 263 256 253 253 251 251 253 257 261 263 266 268 271 274 277 281 283 283 285 289 292 296 300 301 302 303 302 298 297 299 300 298 296 296 298 301 302 302 303 305 307 306 305 307 306 304 302 301 299 295 290 286 283 281 279 277 274 271 270 269 269 269 269
264 264 264 266 270 270 269 272 275 274 269 256 247 246 247 247 250 253 254 256 259 263 265 269 274 277 280 281 282 288 292 295 298 300 301 302 300 296 294 294 297 299 299 300 300 300 303 305 303 302 305 305 303 303 305 305 303 302 301 300 297 293 289 286 284 282 280 277 275 272 270 270 269 269
265 265 265 267 269 270 271 271 271 272 268 251 240 239 241 244 247 248 249 254 259 263 266 270 275 278 278 279 283 290 294 296 298 299 300 300 297 295 294 295 297 300 302 302 300 300 304 307 302 302 305 304 301 302 303 302 303 304 304 301 298 296 295 294 293 291 289 288 287 284 282 280 278 278
264 266 268 270 270 269 269 270 270 271 265 246 238 236 237 241 244 244 247 254 259 262 267 272 275 275 275 279 285 291 294 295 296 297 297 296 296 297 297 298 300 303 303 303 300 300 304 307 303 303 305 303 301 302 302 303 306 307 305 301 299 298 298 298 299 300 299 297 295 293 290 289 288 288
263 265 268 272 275 274 274 273 272 270 256 236 232 233 235 239 240 241 247 254 258 264 269 271 271 271 274 281 288 291 293 294 293 293 293 295 298 299 300 301 302 304 303 303 303 302 305 308 307 305 306 305 303 304 307 309 310 308 302 299 298 297 295 296 298 299 298 295 293 291 289 288 287 287
259 262 263 267 271 275 276 275 269 258 242 229 225 228 233 234 234 240 248 253 258 264 266 265 266 271 278 285 290 292 293 293 293 293 294 297 298 298 299 300 301 302 303 304 305 305 308 312 311 309 309 308 307 309 312 313 312 308 302 298 296 294 292 292 294 295 295 292 290 290 290 290 287 285
256 257 260 262 266 269 271 268 257 242 231 224 220 221 227 230 233 241 247 250 256 260 261 262 269 277 284 288 290 293 294 296 296 295 294 295 296 297 299 300 301 302 303 307 309 309 312 315 315 314 313 310 309 312 315 316 315 312 308 305 303 302 298 295 293 292 291 289 289 290 291 292 290 286
252 253 254 257 262 265 264 262 253 234 220 216 216 221 227 231 237 242 243 247 254 257 259 266 276 283 288 290 293 297 299 300 298 296 295 297 299 302 302 302 304 305 306 310 312 312 313 315 315 316 315 312 312 316 318 317 316 316 315 313 312 311 309 304 298 293 290 289 291 293 293 293 291 288
247 248 250 253 256 257 256 256 246 226 213 207 211 222 229 233 236 237 238 244 254 258 261 270 280 285 288 293 299 302 304 303 301 300 305 310 311 308 304 303 304 304 305 310 312 311 311 311 311 312 311 308 309 313 315 314 314 316 317 317 317 317 316 311 304 298 294 294 295 296 296 294 292 291
246 246 247 248 248 247 248 241 222 212 207 203 211 223 229 231 232 231 235 247 256 260 264 272 278 282 289 297 305 310 310 311 314 322 328 323 317 312 308 305 303 301 304 309 310 308 306 305 305 306 306 305 306 309 310 310 313 317 319 320 321 321 319 315 309 306 304 303 301 299 298 296 295 294
241 239 239 240 241 244 241 220 205 205 205 205 213 221 225 227 229 231 239 251 257 259 264 270 274 281 294 307 313 317 323 335 347 343 331 323 320 317 312 308 305 304 307 310 308 303 298 297 300 304 305 305 305 306 308 310 314 318 319 320 319 318 317 315 312 311 311 310 306 302 299 297 296 295
234 233 232 232 236 240 229 206 200 202 204 207 213 218 222 226 230 235 244 250 251 254 259 262 265 276 300 310 309 310 321 334 335 329 323 319 318 317 313 310 307 306 308 308 303 297 292 294 298 301 302 303 304 306 308 310 313 315 315 315 314 316 318 316 313 314 314 311 308 304 300 298 297 297
224 223 222 224 229 225 205 194 194 197 198 203 209 215 220 225 231 238 242 242 243 245 247 246 243 247 275 292 298 297 304 313 317 318 318 316 316 315 313 311 308 306 304 303 299 293 291 292 295 297 298 301 303 306 308 309 309 310 312 312 314 318 320 318 314 314 313 310 309 307 305 304 303 303
214 213 215 215 208 192 182 181 187 192 195 200 207 213 220 226 232 235 234 231 231 234 236 231 226 230 247 273 290 292 296 303 309 312 315 316 315 314 313 312 310 305 300 297 294 290 290 293 294 295 297 299 301 304 307 308 307 307 309 312 315 318 319 317 316 315 314 314 313 311 310 311 311 311
206 206 207 200 186 177 175 180 187 193 197 201 207 215 221 227 228 226 223 221 222 228 231 229 229 238 255 273 283 288 295 301 304 306 310 314 315 313 312 311 309 304 297 294 293 293 294 295 295 295 297 299 300 303 306 306 305 306 310 314 316 318 319 319 319 320 320 319 317 315 314 315 315 316
201 200 192 183 177 176 178 185 192 196 199 204 211 217 221 223 221 216 214 215 220 226 231 233 237 247 260 270 276 282 290 296 297 300 306 310 312 311 309 307 306 303 299 297 297 299 299 297 296 296 299 301 302 304 306 306 306 309 314 316 317 318 320 322 322 323 323 320 318 318 317 317 318 319
193 191 183 176 175 178 184 190 193 197 201 206 211 215 216 215 212 211 213 217 222 228 234 241 247 252 260 268 275 281 287 292 293 297 304 308 309 307 304 302 301 301 301 302 303 305 304 301 299 299 300 303 305 307 309 309 310 313 314 314 316 319 322 323 322 322 321 319 318 319 319 318 319 319
185 184 181 178 180 184 189 193 194 197 203 206 209 211 211 209 209 212 216 220 226 233 240 248 251 254 259 268 276 281 287 291 292 297 304 308 307 305 301 297 296 297 299 304 308 310 310 309 307 305 303 302 305 309 313 315 319 321 320 318 320 321 321 321 320 319 319 319 319 319 318 317 318 318
184 182 181 183 189 192 192 194 197 200 204 206 209 211 209 208 210 213 219 226 235 242 248 252 254 257 264 271 276 281 286 289 292 299 305 307 306 303 297 293 293 295 298 303 308 311 314 317 316 312 306 300 302 310 320 325 328 330 328 325 325 323 320 319 319 318 319 320 320 318 317 316 317 318
183 185 186 188 191 193 194 196 200 203 205 208 211 211 207 206 210 216 225 236 242 246 251 254 256 261 267 272 276 280 284 287 292 300 306 307 305 300 293 290 294 297 300 304 309 312 317 322 322 318 314 311 315 325 340 342 336 333 331 328 327 326 323 320 319 318 319 321 320 318 318 317 317 318
183 186 190 192 191 191 194 199 202 204 207 211 212 209 206 206 213 222 233 242 248 254 259 260 261 263 267 271 275 278 281 286 294 302 305 305 302 297 292 291 295 297 300 304 310 314 320 325 325 321 321 323 327 332 340 346 344 339 335 331 328 328 326 323 320 319 321 322 322 321 320 318 317 318
186 186 189 191 192 192 196 201 204 206 210 213 212 208 206 209 217 228 238 247 255 263 267 268 267 266 266 269 273 275 279 288 297 303 304 302 297 294 292 293 295 297 300 305 310 317 322 324 324 322 323 327 329 329 331 336 340 341 340 336 332 331 331 327 324 323 323 324 324 323 321 318 317 318
188 189 188 188 190 193 197 202 206 209 213 214 210 208 209 214 222 231 240 250 257 262 266 270 270 267 264 266 270 274 283 292 299 301 299 295 291 290 291 292 294 297 301 306 312 319 322 320 317 319 323 326 327 327 327 329 331 337 343 343 337 335 335 332 328 325 325 326 325 323 321 319 318 319
189 190 189 187 188 192 198 203 208 212 215 214 211 210 213 219 226 235 244 251 258 262 264 267 267 264 263 266 272 279 288 295 297 295 291 287 286 287 289 291 294 298 303 308 313 319 322 317 310 314 320 324 324 322 321 323 324 330 340 346 343 339 336 333 329 327 328 329 328 325 323 322 320 320
186 187 187 188 189 193 198 204 209 213 214 214 212 213 217 223 231 239 245 252 261 265 263 261 261 261 265 270 277 285 290 292 290 287 284 281 282 284 287 291 295 299 303 308 314 319 322 319 313 314 318 321 320 317 316 318 321 327 337 345 346 343 339 335 332 331 332 333 331 327 326 325 323 323
182 184 186 188 190 193 199 205 210 213 213 211 211 214 220 227 233 238 244 255 266 266 261 258 259 262 268 274 281 286 288 286 284 282 281 279 280 282 287 292 297 299 302 307 313 318 320 320 316 315 317 319 318 316 316 318 323 330 337 342 345 346 343 338 335 334 335 337 335 331 328 327 324 325
183 185 187 190 192 196 201 206 210 212 210 208 210 217 223 227 229 232 243 259 267 266 263 263 264 266 270 277 285 288 287 283 281 279 277 276 277 281 288 295 299 301 303 307 312 316 318 319 318 315 316 319 319 317 319 322 327 332 336 339 343 345 344 340 337 337 340 343 341 336 332 330 327 327
185 187 191 194 197 201 205 208 210 209 207 208 214 221 224 223 224 232 247 262 268 266 265 264 264 267 273 282 291 293 289 283 278 274 271 273 276 282 290 296 301 303 305 307 311 313 315 319 320 318 320 324 323 321 322 325 329 333 336 338 340 342 342 341 339 340 345 349 347 341 337 334 329 325
186 189 194 199 202 206 209 211 208 205 206 211 218 221 221 222 227 237 251 264 269 268 264 262 265 272 279 287 295 298 291 281 274 269 269 273 279 284 291 297 302 304 305 307 309 310 313 318 320 321 323 326 325 324 325 328 332 335 336 336 339 341 342 342 341 341 346 351 350 346 343 343 341 336
188 192 196 201 206 209 211 210 206 204 208 214 219 219 218 221 229 241 257 270 272 266 261 263 270 276 282 290 298 300 288 274 268 267 270 276 281 286 291 297 301 304 305 306 307 309 312 317 320 321 323 326 327 327 328 330 334 336 336 336 339 342 343 344 343 343 345 349 351 350 349 351 352 350